When you browse on this site, cookies collect data to enhance your experience and personalize the content and advertising you see.
Visit our Privacy Policy to learn more. By continuing to use the site, you agree to this use of cookies and data.
  • In Czech Republic
  • List of Countries
  • For 7 days
  • Water Temperature
  • Weather Map
  • Weather Widgets
  • user-avatar
    Login

    Hourly Weather Szeged

    Today, 19 February, Wednesday

    Time Temperature Precipitation Wind Pressure Humidity
    00:00 +5°C° 0 mm 3 mps 761 mmHg 72%
    01:00 +5°C° 0 mm 2 mps 762 mmHg 70%
    02:00 +5°C° 0 mm 2 mps 761 mmHg 71%
    03:00 +4°C° 0 mm 2 mps 761 mmHg 71%
    04:00 +4°C° 0 mm 2 mps 761 mmHg 72%
    05:00 +4°C° 0 mm 2 mps 760 mmHg 72%
    06:00 +4°C° 0 mm 2 mps 760 mmHg 71%
    07:00 +4°C° 0 mm 1 mps 760 mmHg 70%
    08:00 +6°C° 0 mm 1 mps 760 mmHg 64%
    09:00 +7°C° 0 mm 1 mps 760 mmHg 58%
    10:00 +9°C° 0 mm 1 mps 760 mmHg 53%
    11:00 +10°C° 0 mm 1 mps 759 mmHg 49%
    12:00 +11°C° 0 mm 1 mps 759 mmHg 45%
    13:00 +10°C° 0 mm 0 mps 758 mmHg 41%
    14:00 +11°C° 0 mm 1 mps 757 mmHg 41%
    15:00 +11°C° 0 mm 1 mps 757 mmHg 42%
    16:00 +11°C° 0 mm 1 mps 756 mmHg 43%
    17:00 +10°C° 0 mm 1 mps 756 mmHg 46%
    18:00 +10°C° 0 mm 1 mps 757 mmHg 50%
    19:00 +9°C° 0 mm 1 mps 757 mmHg 53%
    20:00 +8°C° 0 mm 2 mps 757 mmHg 55%
    21:00 +7°C° 0 mm 3 mps 757 mmHg 57%
    22:00 +6°C° 0 mm 4 mps 758 mmHg 59%
    23:00 +6°C° 0.1 mm 4 mps 758 mmHg 65%

    Tomorrow, 20 February, Thursday

    Time Temperature Precipitation Wind Pressure Humidity
    00:00 +5°C° 0.1 mm 3 mps 758 mmHg 71%
    01:00 +5°C° 0.1 mm 3 mps 758 mmHg 77%
    02:00 +4°C° 0 mm 4 mps 758 mmHg 75%
    03:00 +4°C° 0 mm 4 mps 758 mmHg 73%
    04:00 +4°C° 0 mm 4 mps 758 mmHg 71%
    05:00 +2°C° 0 mm 5 mps 759 mmHg 70%
    06:00 +2°C° 0 mm 5 mps 759 mmHg 70%
    07:00 +2°C° 0 mm 6 mps 759 mmHg 70%
    08:00 +3°C° 0 mm 6 mps 759 mmHg 66%
    09:00 +4°C° 0 mm 6 mps 760 mmHg 62%
    10:00 +6°C° 0 mm 5 mps 760 mmHg 59%
    11:00 +6°C° 0 mm 5 mps 760 mmHg 55%
    12:00 +7°C° 0 mm 5 mps 760 mmHg 52%
    13:00 +8°C° 0 mm 5 mps 759 mmHg 49%
    14:00 +8°C° 0 mm 4 mps 759 mmHg 49%
    15:00 +8°C° 0 mm 4 mps 759 mmHg 50%
    16:00 +7°C° 0 mm 4 mps 759 mmHg 51%
    17:00 +6°C° 0 mm 4 mps 759 mmHg 55%
    18:00 +5°C° 0 mm 3 mps 760 mmHg 60%
    19:00 +5°C° 0 mm 2 mps 760 mmHg 64%
    20:00 +5°C° 0 mm 2 mps 760 mmHg 66%
    21:00 +4°C° 0 mm 2 mps 760 mmHg 67%
    22:00 +4°C° 0 mm 2 mps 760 mmHg 68%
    23:00 +3°C° 0 mm 2 mps 760 mmHg 68%

    Day after tomorrow, 21 February, Friday

    Time Temperature Precipitation Wind Pressure Humidity
    00:00 +3°C° 0 mm 2 mps 760 mmHg 69%
    01:00 +4°C° 0 mm 1 mps 760 mmHg 70%
    02:00 +3°C° 0 mm 1 mps 760 mmHg 70%
    03:00 +3°C° 0 mm 1 mps 760 mmHg 70%
    04:00 +2°C° 0 mm 2 mps 760 mmHg 71%
    05:00 +2°C° 0 mm 2 mps 760 mmHg 72%
    06:00 +2°C° 0 mm 2 mps 761 mmHg 73%
    07:00 +2°C° 0 mm 2 mps 761 mmHg 74%
    14:00 +6°C° 0 mm 5 mps 761 mmHg 57%
    15:00 +7°C° 0 mm 6 mps 761 mmHg 51%
    16:00 +7°C° 0 mm 6 mps 761 mmHg 45%
    17:00 +5°C° 0 mm 6 mps 762 mmHg 47%
    18:00 +4°C° 0 mm 6 mps 763 mmHg 50%
    19:00 +3°C° 0 mm 5 mps 764 mmHg 52%
    20:00 +3°C° 0 mm 5 mps 764 mmHg 55%
    21:00 +3°C° 0 mm 4 mps 764 mmHg 59%
    22:00 +1°C° 0 mm 4 mps 765 mmHg 62%
    23:00 +1°C° 0 mm 4 mps 765 mmHg 65%

    22 February, Saturday

    Time Temperature Precipitation Wind Pressure Humidity
    00:00 +2°C° 0 mm 3 mps 765 mmHg 67%
    01:00 +1°C° 0 mm 3 mps 765 mmHg 70%
    02:00 +1°C° 0 mm 3 mps 765 mmHg 72%
    03:00 +1°C° 0 mm 2 mps 765 mmHg 74%
    04:00 +1°C° 0 mm 2 mps 765 mmHg 76%
    05:00 +1°C° 0 mm 2 mps 766 mmHg 75%
    06:00 +2°C° 0 mm 1 mps 766 mmHg 75%
    07:00 +2°C° 0 mm 1 mps 766 mmHg 75%
    08:00 +3°C° 0 mm 1 mps 766 mmHg 68%
    09:00 +5°C° 0 mm 1 mps 767 mmHg 61%
    10:00 +7°C° 0 mm 1 mps 767 mmHg 54%
    11:00 +7°C° 0 mm 2 mps 767 mmHg 51%
    12:00 +8°C° 0 mm 2 mps 767 mmHg 47%
    13:00 +9°C° 0 mm 3 mps 766 mmHg 43%
    14:00 +9°C° 0 mm 2 mps 766 mmHg 44%
    15:00 +9°C° 0 mm 2 mps 766 mmHg 45%
    16:00 +9°C° 0 mm 2 mps 765 mmHg 46%
    17:00 +8°C° 0 mm 2 mps 765 mmHg 51%
    18:00 +7°C° 0 mm 3 mps 765 mmHg 55%
    19:00 +5°C° 0 mm 3 mps 765 mmHg 60%
    20:00 +4°C° 0 mm 3 mps 765 mmHg 61%
    21:00 +4°C° 0 mm 3 mps 765 mmHg 62%
    22:00 +4°C° 0 mm 4 mps 765 mmHg 64%
    23:00 +3°C° 0 mm 3 mps 764 mmHg 65%

    23 February, Sunday

    Time Temperature Precipitation Wind Pressure Humidity
    00:00 +3°C° 0 mm 3 mps 764 mmHg 66%
    01:00 +3°C° 0 mm 3 mps 764 mmHg 67%
    02:00 +3°C° 0 mm 3 mps 764 mmHg 67%
    03:00 +3°C° 0 mm 3 mps 763 mmHg 67%
    04:00 +2°C° 0 mm 3 mps 763 mmHg 67%
    05:00 +2°C° 0 mm 3 mps 763 mmHg 67%
    06:00 +2°C° 0 mm 3 mps 763 mmHg 67%
    07:00 +2°C° 0 mm 3 mps 763 mmHg 67%
    08:00 +4°C° 0 mm 3 mps 763 mmHg 63%
    09:00 +7°C° 0 mm 3 mps 763 mmHg 58%
    10:00 +8°C° 0 mm 3 mps 763 mmHg 54%
    11:00 +10°C° 0 mm 3 mps 762 mmHg 51%
    12:00 +11°C° 0 mm 3 mps 762 mmHg 48%
    13:00 +13°C° 0 mm 3 mps 761 mmHg 45%
    14:00 +13°C° 0 mm 3 mps 760 mmHg 46%
    15:00 +13°C° 0 mm 3 mps 760 mmHg 46%
    16:00 +14°C° 0 mm 2 mps 759 mmHg 47%
    17:00 +12°C° 0 mm 3 mps 758 mmHg 50%
    18:00 +10°C° 0 mm 3 mps 758 mmHg 52%
    19:00 +9°C° 0 mm 3 mps 758 mmHg 55%
    20:00 +8°C° 0 mm 4 mps 757 mmHg 56%
    21:00 +7°C° 0 mm 4 mps 757 mmHg 57%
    22:00 +7°C° 0 mm 5 mps 756 mmHg 57%
    23:00 +7°C° 0 mm 5 mps 756 mmHg 59%

    24 February, Monday

    Time Temperature Precipitation Wind Pressure Humidity
    00:00 +7°C° 0 mm 5 mps 755 mmHg 61%
    01:00 +7°C° 0 mm 6 mps 755 mmHg 62%
    02:00 +7°C° 0 mm 6 mps 754 mmHg 64%
    03:00 +7°C° 0 mm 6 mps 754 mmHg 65%
    04:00 +7°C° 0 mm 6 mps 754 mmHg 67%
    05:00 +6°C° 0 mm 7 mps 755 mmHg 66%
    06:00 +6°C° 0 mm 8 mps 756 mmHg 64%
    07:00 +6°C° 0 mm 10 mps 757 mmHg 63%
    08:00 +7°C° 0 mm 11 mps 758 mmHg 56%
    09:00 +7°C° 0 mm 12 mps 759 mmHg 48%
    10:00 +7°C° 0 mm 13 mps 761 mmHg 41%
    11:00 +7°C° 0 mm 12 mps 761 mmHg 39%
    12:00 +7°C° 0 mm 11 mps 762 mmHg 37%
    13:00 +8°C° 0 mm 10 mps 762 mmHg 35%
    14:00 +8°C° 0 mm 9 mps 762 mmHg 35%
    15:00 +9°C° 0 mm 8 mps 762 mmHg 36%
    16:00 +7°C° 0 mm 8 mps 762 mmHg 37%
    17:00 +6°C° 0 mm 7 mps 763 mmHg 41%
    18:00 +5°C° 0 mm 6 mps 763 mmHg 45%
    19:00 +5°C° 0 mm 5 mps 764 mmHg 49%
    20:00 +5°C° 0 mm 4 mps 764 mmHg 52%
    21:00 +4°C° 0 mm 4 mps 764 mmHg 55%
    22:00 +3°C° 0 mm 3 mps 764 mmHg 57%
    23:00 +4°C° 0 mm 2 mps 764 mmHg 59%
    Show more